Location: Kirkland Lake
(48.1510°N, 80.0330°W)
Time: 14:52:18
(UTC-04:00)

ACS3 Solar Sail - Visible Passes

Search period start: 08 June 2026 00:00
Search period end: 18 June 2026 00:00
Orbit: 878 x 952 km, 97.2° (Epoch: 8 June)

Date Brightness Start Highest point End Pass type
(mag) Time Alt. Az. Time Alt. Az. Time Alt. Az.
8 Jun 3.5 00:25:41 10° NE 00:29:20 17° E 00:31:56 13° ESE visible
8 Jun 1.6 02:06:31 10° N 02:12:15 82° WNW 02:15:18 30° SSW visible
8 Jun 3.6 03:50:22 10° NNW 03:53:38 16° NW 03:56:56 10° W visible
9 Jun 3.3 00:32:23 10° NE 00:36:29 20° E 00:39:04 15° ESE visible
9 Jun 1.7 02:13:34 10° N 02:19:16 72° WNW 02:22:26 28° SSW visible
9 Jun 3.7 03:57:44 10° NNW 04:00:32 14° NW 04:03:21 10° W visible
10 Jun 3.2 00:39:06 10° NE 00:43:34 23° E 00:46:10 17° ESE visible
10 Jun 1.8 02:20:34 10° N 02:26:13 63° WNW 02:29:31 26° SW visible
10 Jun 3.8 04:05:10 10° NNW 04:07:22 12° NW 04:09:34 10° WNW visible
11 Jun 3.0 00:45:49 10° NE 00:50:35 26° E 00:53:11 19° SE visible
11 Jun 2.0 02:27:31 10° N 02:33:07 55° WNW 02:36:33 24° SW visible
11 Jun 3.9 04:12:49 10° NW 04:14:08 11° NW 04:15:27 10° WNW visible
12 Jun 2.8 00:52:31 10° NNE 00:57:31 30° E 01:00:09 21° SE visible
12 Jun 2.2 02:34:26 10° N 02:39:56 48° WNW 02:43:31 22° SW visible
13 Jun 2.6 00:59:11 10° NNE 01:04:24 34° E 01:07:04 23° SE visible
13 Jun 2.4 02:41:18 10° N 02:46:42 43° WNW 02:50:25 19° SW visible
14 Jun 2.5 01:05:50 10° NNE 01:11:13 39° E 01:13:56 25° SE visible
14 Jun 2.6 02:48:09 10° N 02:53:24 38° WNW 02:57:16 17° SW visible
15 Jun 2.3 01:12:27 10° NNE 01:17:58 44° E 01:20:44 27° SSE visible
15 Jun 2.7 02:54:57 10° N 03:00:02 34° WNW 03:04:04 15° WSW visible
16 Jun 2.1 01:19:02 10° NNE 01:24:39 51° E 01:27:28 28° SSE visible
16 Jun 2.9 03:01:41 10° N 03:06:37 30° WNW 03:10:48 13° WSW visible
17 Jun 1.9 01:25:34 10° NNE 01:31:16 58° E 01:34:09 29° SSE visible
17 Jun 3.1 03:08:23 10° N 03:13:07 27° WNW 03:17:29 12° WSW visible
17 Jun 3.9 23:53:42 10° ENE 23:54:33 10° E 23:55:24 10° E visible
